Location: Presov
(49.0000°N, 21.2500°E)
Time: 06:38:42
(UTC+02:00)

Transit 2A Rocket - Pass Details

Date: 18 April 2021
Orbit: 594 x 909 km, 66.7° (Epoch: 07 May)

Event Time Altitude Azimuth Distance (km) Brightness Sun altitude
Rises 22:51:02 0° 329° (NNW) 2,851 9.3 -25.7°
Reaches altitude 10° 22:53:49 10° 348° (NNW) 1,963 8.1 -25.9°
Maximum altitude 22:56:59 19° 34° (NE) 1,485 6.8 -26.2°
Enters shadow 22:58:18 17° 57° (ENE) 1,594 6.7 -26.3°
Drops below altitude 10° 23:00:16 10° 81° (E) 2,036 - -26.4°
Sets 23:03:13 0° 99° (E) 2,996 - -26.6°
